Regional Weather Roundup
Issued by NWS

Home | Current Version | Previous Version | Text Only | Print | Product List | Glossary Off
Versions: 1 2 3 4 5 6 7 8 9 10 11 12 13 14 15 16 17 18 19 20 21 22 23 24 25 26 27 28 29 30 31 32 33 34 35 36 37 38 39 40 41 42 43 44 45 46 47 48 49 50

000
ASUS43 KDTX 260801
RWRMI
MICHIGAN HOURLY REGIONAL WEATHER ROUNDUP
NATIONAL WEATHER SERVICE DETROIT/PONTIAC MI
400 AM EDT THU MAY 26 2016

NOTE: "FAIR" INDICATES FEW OR NO CLOUDS BELOW 12,000 FEET WITH NO
SIGNIFICANT WEATHER AND/OR OBSTRUCTION TO VISIBILITY.

MIZ047>049-052>055-059>063-066>070-074>076-081>083-260900-
SOUTHEAST LOWER MICHIGAN

CITY           SKY/WX    TMP DP  RH WIND       PRES   REMARKS
ADRIAN         MOCLDY    70  62  76 N5        30.00S
ALMA           CLOUDY    63  62  98 CALM      29.94F
ANN ARBOR      MOCLDY    70  61  73 NW9       30.00R
BAD AXE        MOCLDY    68  59  73 SW7       29.96R
CARO           CLOUDY    67  61  79 W6        29.96R
DETROIT CITY   CLOUDY    71  60  68 SW9       29.97S
DETROIT        CLOUDY    69  61  75 SW7       29.99R
FLINT          CLOUDY    71  61  70 W8        29.98R
GROSSE ILE     MOCLDY    66  63  88 CALM      29.97S
HILLSDALE      CLOUDY    66  61  84 CALM      30.00F
HOWELL         CLOUDY    66  63  88 CALM      29.99F

CITY           SKY/WX    TMP DP  RH WIND       PRES   REMARKS
JACKSON        LGT RAIN  66  62  87 SE5       29.97F
LAMBERTVILLE   CLOUDY    71  62  73 S3        30.00S
LANSING        CLOUDY    64  62  93 S7        29.95F
LAPEER         FAIR      71  58  65 W7        29.98R
MASON          LGT RAIN  65  61  88 SE6       29.97F
MONROE         CLOUDY    70  64  79 SW6       29.98S
MT. CLEMENS    CLOUDY    71  62  73 SW7       29.95F
PONTIAC        CLOUDY    70  60  70 W9        29.99R
PORT HOPE        N/A     61  56  83 CALM      29.93F
PORT HURON     CLOUDY    66  59  77 S3        29.97S
TRI CITIES     LGT RAIN  65  59  81 NW3       29.95F
MIDLAND        DRIZZLE   60  56  87 N3        29.93F
TROY           PTCLDY    72  61  67 SW6       30.00R
SAGINAW HB     CLOUDY    66  59  77 CALM      29.95S
$$
MIZ043>046-050>051-056>058-064>065-071>073-077>080-260900-
SOUTHWEST LOWER MICHIGAN

CITY           SKY/WX    TMP DP  RH WIND       PRES   REMARKS
BATTLE CREEK   CLOUDY    63  61  93 SE5       29.96F
BENTON HARBOR  CLOUDY    65  63  93 S6        29.95S
BIG RAPIDS     CLOUDY    63  63  97 CALM      29.94S
COLDWATER      CLOUDY    64  61  88 CALM      29.98F
FREMONT        CLOUDY    64  64 100 E5        29.93S
HOLLAND        CLOUDY    65  62  90 S5        29.93S
GRAND RAPIDS   CLOUDY    66  63  90 S10       29.94F
KALAMAZOO      CLOUDY    64  61  90 S3        29.95F
LUDINGTON      MOCLDY    63  62  94 SE3       29.91R
MARSHALL       CLOUDY    63  62  96 CALM      29.96F
MOUNT PLEASANT RAIN      62  62  99 CALM      29.93F
MUSKEGON       MOCLDY    66  61  84 SE5       29.92R
SOUTH HAVEN    CLOUDY    64  64  99 S5        29.94S
$$
MIZ016>042-260900-
NORTHERN LOWER MICHIGAN

CITY           SKY/WX    TMP DP  RH WIND       PRES   REMARKS
ALPENA         CLOUDY    57  52  83 SE6       29.94F
BEAVER ISLAND  LGT RAIN  58  58  99 SE5       29.90F
BELLAIRE       LGT RAIN  63  57  82 CALM      29.92F
CADILLAC       CLOUDY    62  60  94 CALM      29.94F
CHARLEVOIX     LGT RAIN  62  61  97 E7        29.94F
FRANKFORT      CLOUDY    65  64  96 SE3       29.89S
GAYLORD        CLOUDY    61  55  81 SW6       29.96S
GRAYLING       HVY RAIN  60  58  94 CALM      29.97F
HARBOR SPRINGS DRIZZLE   60  59  97 CALM      29.93F
HOUGHTON LAKE  LGT RAIN  63  60  90 SW7       29.96F
MANISTEE       MOCLDY    64  59  82 SE5       29.91S
OSCODA         CLOUDY    57  51  81 CALM      29.94R
PELLSTON       CLOUDY    60  58  92 CALM      29.94F
ROGERS CITY    MOCLDY    60  53  75 SE7       29.94F
TRAVERSE CITY  CLOUDY    65  62  90 CALM      29.90F
$$
MIZ007>008-015-260900-
EASTERN UPPER MICHIGAN

CITY           SKY/WX    TMP DP  RH WIND       PRES   REMARKS
KINROSS          N/A     57  55  94 SW9G17    30.00R
MACKINAC ISLAN LGT RAIN  54  54 100 NE13      29.95F
NEWBERRY       LGT RAIN  58  57  97 SE9       29.92F
S. S. MARIE    CLOUDY    59  55  87 SE6       29.95F
MUNISING         N/A     60  59  96 S8        29.82F
$$
MIZ004>006-011>014-085-260900-
CENTRAL UPPER MICHIGAN

CITY           SKY/WX    TMP DP  RH WIND       PRES   REMARKS
MANISTIQUE     CLOUDY    57  56  97 E9        29.87F
ESCANABA       CLOUDY    57  55  94 S7        29.85F
MENOMINEE      CLOUDY    61  59  94 SW5       29.84F
$$
MIZ001>003-009>011-084-260900-
WESTERN UPPER MICHIGAN

CITY           SKY/WX    TMP DP  RH WIND       PRES   REMARKS
IRON MOUNTAIN  CLOUDY    60  59  96 S9        29.81F FOG
HOUGHTON       CLOUDY    56  55  97 E8        29.82R
COPPER HARBOR    N/A     58  56  93 S12G18    29.83F
IRONWOOD       CLOUDY    52  52 100 SW3       29.80S
$$

ABBREVIATIONS USED IN REMARKS
   TC - TEMPERATURE IN CELSIUS
  WCI - WIND CHILL INDEX
   HX - HEAT INDEX
  VSB - VISIBILITY





USA.gov is the U.S. government's official web portal to all federal, state and local government web resources and services.